Tracking 27126 objects as of 30-Mar-2023
HD Live streaming from Space Station
objects crossing your sky now

STARLINK-4413

Track STARLINK-4413 now!
10-day predictions
STARLINK-4413 is classified as:


NORAD ID: 53207
Int'l Code: 2022-084U
Perigee: 569.0 km
Apogee: 571.3 km
Inclination: 97.7 °
Period: 95.9 minutes
Semi major axis: 6941 km
RCS: Unknown
Launch date: July 22, 2022
Source: United States (US)
Launch site: AIR FORCE WESTERN TEST RANGE (AFWTR)
Your satellite tracking list
Your tracking list is empty




NASA's NSSDC Master Catalog

Two Line Element Set (TLE):
1 53207U 22084U   23088.71740117 -.00000261  00000-0 -15687-4 0  9994
2 53207  97.6582 150.9308 0001612  91.0485 269.0924 15.01259878 37883
Source of the keplerian elements: AFSPC